Regional Weather Roundup
Issued by NWS Albany, NY

Home | Current Version | Previous Version | Graphics & Text | Print | Product List | Glossary Off
Versions: 1 2 3 4 5 6 7 8 9 10 11 12 13 14 15 16 17 18 19 20 21 22 23 24 25 26 27 28 29 30 31 32 33 34 35 36 37 38 39 40 41 42 43 44 45 46 47 48 49 50

000
ASUS41 KALY 300010
RWRALY

NEW YORK STATE HOURLY WEATHER ROUNDUP
NATIONAL WEATHER SERVICE ALBANY NY
800 PM EDT TUE JUL 29 2014

NOTE: "FAIR" INDICATES FEW OR NO CLOUDS BELOW 12,000 FEET WITH NO
SIGNIFICANT WEATHER AND/OR NO OBSTRUCTIONS TO VISIBILITY.

NYZ032-033-038>043-046>054-057>066-NYZ062>081-300100-
EAST


CITY           SKY/WX    TMP DP  RH WIND       PRES   REMARKS
ALBANY         MOCLDY    68  53  58 W6        29.93R
GLENS FALLS    CLOUDY    68  59  73 NW3       29.92R
POUGHKEEPSIE   CLOUDY    70  56  61 CALM      29.93R
NEWBURGH       MOCLDY    66  55  68 W7        29.96R
MONTGOMERY     CLOUDY    67  52  58 W3        29.95R
WHITE PLAINS   MOCLDY    68  52  56 NW3       29.94R
ISLIP          MOCLDY    73  51  46 NW6       29.92R
NEW YORK CITY  CLOUDY    73  50  44 NW10      29.93R
CENTRAL PARK   CLOUDY    72  48  42 VRB5      29.97R
$$

NYZ005>009-017-018-044>046-055-056-300100-
CENTRAL


CITY           SKY/WX    TMP DP  RH WIND       PRES   REMARKS
FULTON         CLEAR     63  53  70 CALM      29.97R
SYRACUSE       PTCLDY    66  51  58 NW7       29.96R
ROME           CLEAR     65  51  60 NW8       29.97R
ELMIRA         CLOUDY    65  54  67 CALM      29.98R
BINGHAMTON     CLOUDY    61  52  72 CALM      30.00R
MONTICELLO     CLOUDY    63  54  72 W6        30.00R
$$

NYZ026>034-041>043-300100-
NORTH


CITY           SKY/WX    TMP DP  RH WIND       PRES   REMARKS
WATERTOWN      CLOUDY    65  50  58 S5        29.95R
FORT DRUM      NOT AVBL
MASSENA        CLEAR     64  57  78 SW5       29.93R
SARANAC LAKE   MOCLDY    58  53  84 CALM      29.95R
PLATTSBURGH    PTCLDY    62  57  83 CALM      29.92R
$$

NYZ001>004-010>016-019>021-300100-
WEST


CITY           SKY/WX    TMP DP  RH WIND       PRES   REMARKS
NIAGARA FALLS  CLOUDY    65  52  62 W13       29.96R
BUFFALO        MOCLDY    66  51  58 SW12      29.97R
DUNKIRK        PTCLDY    64  50  60 SW8       29.99R
JAMESTOWN      CLEAR     59  48  67 W5        30.01S
WELLSVILLE     PTCLDY    59  50  72 W5        30.03R
ROCHESTER      MOCLDY    65  55  70 SW5       29.97R
PENN YAN       CLOUDY    64  56  75 CALM      29.99R
$$

             KEY
       WCI = WIND CHILL INDEX
       VSB = VISIBILITY
       HX  = HEAT INDEX
$$



USA.gov is the U.S. government's official web portal to all federal, state and local government web resources and services.